When you browse on this site, cookies collect data to enhance your experience and personalize the content and advertising you see.
Visit our Privacy Policy to learn more. By continuing to use the site, you agree to this use of cookies and data.
  • In Romania
  • List of Countries
  • For 7 days
  • Water Temperature
  • Satellite Maps
  • Weather Map
  • Weather Widgets
  • user-avatar
    Login

    Hourly Weather Wexford

    Today, 19 November, Monday

    Time Temperature Precipitation Wind Pressure Humidity
    00:00 +5°C° 0 mm 8 mps 768 mmHg 77%
    01:00 +5°C° 0 mm 8 mps 768 mmHg 76%
    02:00 +5°C° 0 mm 8 mps 767 mmHg 74%
    03:00 +5°C° 0 mm 8 mps 767 mmHg 73%
    04:00 +5°C° 0 mm 8 mps 767 mmHg 76%
    05:00 +5°C° 0 mm 8 mps 767 mmHg 79%
    06:00 +5°C° 0 mm 8 mps 767 mmHg 82%
    07:00 +5°C° 0 mm 8 mps 767 mmHg 83%
    08:00 +5°C° 0 mm 9 mps 767 mmHg 84%
    09:00 +6°C° 0 mm 9 mps 767 mmHg 85%
    10:00 +6°C° 0 mm 9 mps 767 mmHg 82%
    11:00 +6°C° 0 mm 9 mps 766 mmHg 79%
    12:00 +6°C° 0 mm 9 mps 766 mmHg 76%
    13:00 +6°C° 0 mm 9 mps 766 mmHg 75%
    14:00 +6°C° 0 mm 9 mps 765 mmHg 74%
    15:00 +6°C° 0 mm 9 mps 765 mmHg 73%
    16:00 +6°C° 0 mm 9 mps 765 mmHg 74%
    17:00 +6°C° 0 mm 8 mps 765 mmHg 75%
    18:00 +6°C° 0 mm 8 mps 765 mmHg 76%
    19:00 +6°C° 0.1 mm 8 mps 765 mmHg 77%
    20:00 +6°C° 0.1 mm 9 mps 765 mmHg 77%
    21:00 +5°C° 0.1 mm 9 mps 764 mmHg 78%
    22:00 +5°C° 0.1 mm 9 mps 764 mmHg 79%
    23:00 +5°C° 0.1 mm 9 mps 764 mmHg 80%

    Tomorrow, 20 November, Tuesday

    Time Temperature Precipitation Wind Pressure Humidity
    00:00 +3°C° 0.1 mm 9 mps 763 mmHg 81%
    01:00 +3°C° 0.1 mm 9 mps 763 mmHg 81%
    02:00 +3°C° 0.1 mm 9 mps 763 mmHg 81%
    03:00 +3°C° 0.1 mm 9 mps 762 mmHg 81%
    04:00 +3°C° 0.3 mm 9 mps 762 mmHg 82%
    05:00 +3°C° 0.3 mm 9 mps 762 mmHg 82%
    06:00 +3°C° 0.3 mm 9 mps 761 mmHg 83%
    07:00 +3°C° 0.3 mm 9 mps 761 mmHg 83%
    08:00 +3°C° 0.3 mm 9 mps 761 mmHg 84%
    09:00 +3°C° 0.3 mm 9 mps 761 mmHg 84%
    10:00 +5°C° 0.1 mm 9 mps 761 mmHg 81%
    11:00 +5°C° 0.1 mm 9 mps 760 mmHg 78%
    12:00 +6°C° 0.1 mm 9 mps 760 mmHg 75%
    13:00 +6°C° 0.1 mm 9 mps 759 mmHg 75%
    14:00 +6°C° 0.1 mm 9 mps 759 mmHg 76%
    15:00 +5°C° 0.1 mm 8 mps 758 mmHg 76%
    16:00 +5°C° 0.3 mm 9 mps 758 mmHg 77%
    17:00 +3°C° 0.3 mm 9 mps 758 mmHg 78%
    18:00 +3°C° 0.3 mm 9 mps 758 mmHg 79%
    19:00 +3°C° 0.4 mm 9 mps 757 mmHg 80%
    20:00 +3°C° 0.4 mm 9 mps 757 mmHg 81%
    21:00 +3°C° 0.4 mm 9 mps 757 mmHg 82%
    22:00 +4°C° 0.4 mm 8 mps 757 mmHg 84%
    23:00 +4°C° 0.4 mm 7 mps 756 mmHg 86%

    Day after tomorrow, 21 November, Wednesday

    Time Temperature Precipitation Wind Pressure Humidity
    00:00 +4°C° 0.4 mm 7 mps 756 mmHg 87%
    01:00 +3°C° 0.1 mm 6 mps 756 mmHg 88%
    02:00 +3°C° 0.1 mm 5 mps 755 mmHg 89%
    03:00 +3°C° 0.1 mm 5 mps 755 mmHg 90%
    04:00 +4°C° 0.1 mm 4 mps 755 mmHg 90%
    05:00 +4°C° 0.1 mm 4 mps 754 mmHg 90%
    06:00 +4°C° 0.1 mm 3 mps 754 mmHg 91%
    07:00 +4°C° 0.1 mm 3 mps 754 mmHg 90%
    08:00 +4°C° 0.1 mm 3 mps 754 mmHg 90%
    09:00 +4°C° 0.1 mm 3 mps 754 mmHg 89%
    10:00 +5°C° 0.1 mm 3 mps 754 mmHg 86%
    11:00 +5°C° 0.1 mm 4 mps 755 mmHg 83%
    12:00 +6°C° 0.1 mm 5 mps 755 mmHg 79%
    13:00 +6°C° 0.3 mm 5 mps 755 mmHg 81%
    14:00 +5°C° 0.3 mm 6 mps 755 mmHg 82%
    15:00 +4°C° 0.3 mm 6 mps 755 mmHg 84%
    16:00 +4°C° 0.4 mm 7 mps 756 mmHg 86%
    17:00 +4°C° 0.4 mm 7 mps 756 mmHg 88%
    18:00 +3°C° 0.4 mm 7 mps 757 mmHg 89%
    19:00 +4°C° 0.5 mm 7 mps 758 mmHg 88%
    20:00 +4°C° 0.5 mm 7 mps 758 mmHg 87%
    21:00 +5°C° 0.5 mm 8 mps 759 mmHg 86%
    22:00 +4°C° 0.3 mm 8 mps 759 mmHg 87%
    23:00 +4°C° 0.3 mm 8 mps 760 mmHg 88%

    22 November, Thursday

    Time Temperature Precipitation Wind Pressure Humidity
    00:00 +4°C° 0.3 mm 8 mps 760 mmHg 89%
    01:00 +4°C° 0.2 mm 8 mps 760 mmHg 88%
    02:00 +5°C° 0.2 mm 8 mps 760 mmHg 88%
    03:00 +5°C° 0.2 mm 8 mps 761 mmHg 87%
    04:00 +5°C° 0 mm 8 mps 761 mmHg 87%
    05:00 +4°C° 0 mm 8 mps 761 mmHg 87%
    06:00 +4°C° 0 mm 8 mps 761 mmHg 87%
    07:00 +2°C° 0 mm 8 mps 761 mmHg 87%
    08:00 +2°C° 0 mm 8 mps 761 mmHg 87%
    09:00 +2°C° 0 mm 8 mps 761 mmHg 86%
    10:00 +4°C° 0 mm 8 mps 761 mmHg 84%
    11:00 +4°C° 0 mm 8 mps 761 mmHg 82%
    12:00 +5°C° 0 mm 8 mps 761 mmHg 80%
    13:00 +5°C° 0 mm 7 mps 761 mmHg 80%
    14:00 +5°C° 0 mm 7 mps 761 mmHg 80%
    15:00 +5°C° 0 mm 7 mps 761 mmHg 81%
    16:00 +4°C° 0 mm 7 mps 761 mmHg 82%
    17:00 +3°C° 0 mm 7 mps 761 mmHg 83%
    18:00 +3°C° 0 mm 7 mps 761 mmHg 85%
    19:00 +3°C° 0 mm 7 mps 761 mmHg 86%
    20:00 +3°C° 0 mm 7 mps 761 mmHg 87%
    21:00 +3°C° 0 mm 7 mps 761 mmHg 88%
    22:00 +3°C° 0 mm 7 mps 760 mmHg 89%
    23:00 +3°C° 0 mm 7 mps 760 mmHg 89%

    23 November, Friday

    Time Temperature Precipitation Wind Pressure Humidity
    00:00 +3°C° 0 mm 7 mps 760 mmHg 89%
    01:00 +3°C° 0 mm 7 mps 760 mmHg 89%
    02:00 +4°C° 0 mm 7 mps 760 mmHg 89%
    03:00 +4°C° 0 mm 7 mps 759 mmHg 89%
    04:00 +4°C° 0.2 mm 8 mps 759 mmHg 89%
    05:00 +4°C° 0.2 mm 8 mps 759 mmHg 90%
    06:00 +5°C° 0.2 mm 8 mps 759 mmHg 90%
    07:00 +5°C° 0.6 mm 8 mps 759 mmHg 90%
    08:00 +5°C° 0.6 mm 8 mps 759 mmHg 91%
    09:00 +6°C° 0.6 mm 8 mps 759 mmHg 91%
    10:00 +6°C° 1 mm 8 mps 759 mmHg 92%
    11:00 +6°C° 1 mm 7 mps 759 mmHg 93%
    12:00 +6°C° 1 mm 7 mps 759 mmHg 94%
    13:00 +8°C° 0.4 mm 6 mps 759 mmHg 93%
    14:00 +8°C° 0.4 mm 5 mps 758 mmHg 93%
    15:00 +10°C° 0.4 mm 4 mps 758 mmHg 92%
    16:00 +8°C° 0.1 mm 4 mps 758 mmHg 92%
    17:00 +7°C° 0.1 mm 4 mps 758 mmHg 92%
    18:00 +6°C° 0.1 mm 4 mps 758 mmHg 92%
    19:00 +6°C° 0.1 mm 4 mps 759 mmHg 92%
    20:00 +7°C° 0.1 mm 3 mps 759 mmHg 92%
    21:00 +7°C° 0.1 mm 3 mps 759 mmHg 91%
    22:00 +7°C° 0 mm 3 mps 759 mmHg 91%
    23:00 +7°C° 0 mm 3 mps 759 mmHg 91%

    24 November, Saturday

    Time Temperature Precipitation Wind Pressure Humidity
    00:00 +5°C° 0 mm 3 mps 759 mmHg 91%
    01:00 +5°C° 0 mm 3 mps 759 mmHg 92%
    02:00 +5°C° 0 mm 3 mps 759 mmHg 93%
    03:00 +5°C° 0 mm 4 mps 758 mmHg 93%
    04:00 +5°C° 0 mm 4 mps 758 mmHg 94%
    05:00 +5°C° 0 mm 4 mps 758 mmHg 95%
    06:00 +5°C° 0 mm 5 mps 758 mmHg 96%
    07:00 +6°C° 0 mm 5 mps 758 mmHg 96%
    08:00 +6°C° 0 mm 5 mps 759 mmHg 95%
    09:00 +6°C° 0 mm 5 mps 759 mmHg 95%
    10:00 +7°C° 0 mm 5 mps 759 mmHg 92%
    11:00 +8°C° 0 mm 5 mps 759 mmHg 90%
    12:00 +9°C° 0 mm 5 mps 759 mmHg 87%
    13:00 +9°C° 0 mm 5 mps 759 mmHg 87%
    14:00 +8°C° 0 mm 5 mps 758 mmHg 88%
    15:00 +8°C° 0 mm 5 mps 758 mmHg 88%
    16:00 +8°C° 0 mm 5 mps 758 mmHg 89%
    17:00 +7°C° 0 mm 5 mps 759 mmHg 90%
    18:00 +7°C° 0 mm 5 mps 759 mmHg 91%
    19:00 +7°C° 0 mm 5 mps 759 mmHg 91%
    20:00 +7°C° 0 mm 4 mps 759 mmHg 92%
    21:00 +7°C° 0 mm 4 mps 759 mmHg 92%
    22:00 +7°C° 0 mm 4 mps 759 mmHg 92%
    23:00 +7°C° 0 mm 4 mps 760 mmHg 92%
    Show more